TVF79FX LFPO-LIEE

Flight info

Callsign TVF79FX
Flight time 1h 40m
Altitude 37000
Route ERIXU DCT ETAMO DCT ADEKA DCT MOKDI DCT MEN DCT AMLIR DCT FJR DCT AMFAC DCT BATIV DCT PELOS DCT IPROM DCT SODIO M732 KOVAS
Aircraft B738/M-SDE2E3FGHIRWXY/LB1

Departure

Time 2026-05-04 16:12
Airport Paris-Orly Airport (LFPO)

Arrival

Time 2026-05-04 17:52
Airport Cagliari Elmas Airport (LIEE)
Time Latitude Longitude Altitude Speed Heading
2026-05-04 15:49 48.72812 2.37329 283 ft 0 kts 342°
2026-05-04 16:05 48.72785 2.37342 287 ft 6 kts 342°
2026-05-04 16:05 48.72748 2.37364 287 ft 6 kts 309°
2026-05-04 16:05 48.72740 2.37399 284 ft 0 kts 257°
2026-05-04 16:07 48.72740 2.37400 284 ft 1 kts 258°
2026-05-04 16:07 48.72575 2.37055 285 ft 17 kts 251°
2026-05-04 16:08 48.72544 2.36887 285 ft 16 kts 255°
2026-05-04 16:08 48.72452 2.36392 283 ft 17 kts 255°
2026-05-04 16:09 48.72390 2.36045 282 ft 17 kts 255°
2026-05-04 16:09 48.72327 2.35712 284 ft 18 kts 254°
2026-05-04 16:10 48.72122 2.35646 283 ft 18 kts 162°
2026-05-04 16:11 48.72247 2.37506 285 ft 159 kts 73°
2026-05-04 16:11 48.72568 2.39304 725 ft 192 kts 75°
2026-05-04 16:12 48.73475 2.44290 3777 ft 175 kts 75°
2026-05-04 16:12 48.74204 2.50830 4794 ft 242 kts 88°
2026-05-04 16:13 48.74260 2.56025 5964 ft 252 kts 101°
2026-05-04 16:13 48.71974 2.60119 6965 ft 274 kts 159°
2026-05-04 16:14 48.68260 2.61453 8678 ft 278 kts 169°
2026-05-04 16:14 48.64418 2.61713 10281 ft 285 kts 199°
2026-05-04 16:15 48.59690 2.54869 10908 ft 355 kts 231°
2026-05-04 16:16 48.56469 2.48873 11874 ft 376 kts 230°
2026-05-04 16:16 48.51084 2.40135 13918 ft 386 kts 210°
2026-05-04 16:17 48.46384 2.36149 15272 ft 390 kts 210°
2026-05-04 16:18 48.39287 2.29921 17222 ft 397 kts 210°
2026-05-04 16:18 48.36898 2.27813 17831 ft 399 kts 210°
2026-05-04 16:19 48.29484 2.21932 19460 ft 407 kts 194°
2026-05-04 16:19 48.23827 2.22043 20545 ft 413 kts 172°
2026-05-04 16:20 48.15249 2.24309 21959 ft 421 kts 173°
2026-05-04 16:20 48.09437 2.25730 22897 ft 425 kts 173°
2026-05-04 16:21 48.00552 2.26747 24117 ft 429 kts 180°
2026-05-04 16:22 47.94569 2.26975 24877 ft 431 kts 180°
2026-05-04 16:22 47.85514 2.27455 25904 ft 436 kts 180°
2026-05-04 16:23 47.76364 2.28032 26843 ft 441 kts 180°
2026-05-04 16:24 47.64120 2.28815 28650 ft 436 kts 180°
2026-05-04 16:25 47.58114 2.29195 29577 ft 433 kts 180°
2026-05-04 16:26 47.46160 2.29947 31122 ft 427 kts 181°
2026-05-04 16:26 47.37304 2.30501 32212 ft 422 kts 181°
2026-05-04 16:27 47.31454 2.30867 32889 ft 420 kts 181°
2026-05-04 16:28 47.22731 2.31409 33849 ft 417 kts 182°
2026-05-04 16:28 47.14026 2.31948 34452 ft 419 kts 182°
2026-05-04 16:29 47.02337 2.32671 35222 ft 422 kts 182°
2026-05-04 16:30 46.93520 2.33215 35811 ft 423 kts 181°
2026-05-04 16:31 46.87620 2.33671 36147 ft 428 kts 176°
2026-05-04 16:31 46.79149 2.38237 36654 ft 445 kts 153°
2026-05-04 16:32 46.71364 2.45736 36894 ft 449 kts 151°
2026-05-04 16:33 46.60982 2.55700 36908 ft 445 kts 152°
2026-05-04 16:34 46.53245 2.63011 36906 ft 443 kts 152°
2026-05-04 16:35 46.37735 2.77589 36904 ft 444 kts 152°
2026-05-04 16:36 46.29942 2.84877 36908 ft 446 kts 152°
2026-05-04 16:37 46.22104 2.92184 36906 ft 448 kts 152°
2026-05-04 16:38 46.11582 3.01954 36907 ft 451 kts 152°
2026-05-04 16:39 45.98385 3.14144 36903 ft 450 kts 154°
2026-05-04 16:40 45.92710 3.17425 36916 ft 435 kts 173°
2026-05-04 16:40 45.86760 3.18055 36925 ft 426 kts 185°
2026-05-04 16:41 45.71938 3.17702 36909 ft 426 kts 185°
2026-05-04 16:43 45.57101 3.17500 36907 ft 426 kts 185°
2026-05-04 16:43 45.48191 3.17383 36916 ft 428 kts 185°
2026-05-04 16:45 45.30379 3.17150 36923 ft 428 kts 185°
2026-05-04 16:46 45.15512 3.16957 36924 ft 427 kts 185°
2026-05-04 16:47 45.03652 3.16803 36938 ft 426 kts 185°
2026-05-04 16:48 44.91794 3.16646 36931 ft 426 kts 185°
2026-05-04 16:49 44.79957 3.16474 36940 ft 425 kts 185°
2026-05-04 16:50 44.68134 3.16305 36939 ft 425 kts 185°
2026-05-04 16:51 44.59270 3.16197 36947 ft 425 kts 184°
2026-05-04 16:52 44.47396 3.16620 36924 ft 431 kts 176°
2026-05-04 16:53 44.38931 3.21376 36942 ft 450 kts 152°
2026-05-04 16:54 44.28654 3.31312 36942 ft 451 kts 151°
2026-05-04 16:55 44.13095 3.46050 36948 ft 450 kts 152°
2026-05-04 16:56 44.00112 3.58229 36958 ft 452 kts 152°
2026-05-04 16:57 43.92283 3.65546 36971 ft 453 kts 152°
2026-05-04 16:58 43.82176 3.74959 36946 ft 452 kts 152°
2026-05-04 17:00 43.67474 3.88581 36971 ft 447 kts 152°
2026-05-04 17:01 43.55050 4.01500 36978 ft 455 kts 137°
2026-05-04 17:02 43.46717 4.14646 36957 ft 455 kts 137°
2026-05-04 17:03 43.40417 4.24425 36938 ft 456 kts 138°
2026-05-04 17:03 43.34076 4.34182 36937 ft 457 kts 138°
2026-05-04 17:04 43.25588 4.47194 36949 ft 458 kts 138°
2026-05-04 17:05 43.17055 4.60221 36946 ft 459 kts 138°
2026-05-04 17:06 43.10648 4.69965 36943 ft 459 kts 138°
2026-05-04 17:07 43.04960 4.78588 36944 ft 458 kts 138°
2026-05-04 17:07 42.99966 4.86136 36943 ft 458 kts 138°
2026-05-04 17:08 42.93556 4.95799 36947 ft 457 kts 138°
2026-05-04 17:09 42.89284 5.02220 36947 ft 457 kts 139°
2026-05-04 17:09 42.85185 5.08878 36958 ft 461 kts 133°
2026-05-04 17:10 42.75728 5.26612 36958 ft 464 kts 132°
2026-05-04 17:11 42.71897 5.33684 36965 ft 464 kts 132°
2026-05-04 17:12 42.66145 5.44221 36966 ft 466 kts 133°
2026-05-04 17:13 42.56459 5.61889 36974 ft 467 kts 133°
2026-05-04 17:14 42.48672 5.76023 36967 ft 468 kts 133°
2026-05-04 17:15 42.42811 5.86616 36968 ft 469 kts 133°
2026-05-04 17:16 42.34981 6.00712 36974 ft 468 kts 133°
2026-05-04 17:17 42.27136 6.14766 36981 ft 468 kts 133°
2026-05-04 17:18 42.19272 6.28791 36982 ft 468 kts 133°
2026-05-04 17:19 42.11427 6.42744 36987 ft 469 kts 132°
2026-05-04 17:20 42.03784 6.57038 36986 ft 471 kts 131°
2026-05-04 17:20 41.98046 6.67762 36989 ft 471 kts 131°
2026-05-04 17:21 41.90352 6.82016 36988 ft 471 kts 131°
2026-05-04 17:22 41.86494 6.89138 36984 ft 472 kts 131°
2026-05-04 17:23 41.78763 7.03361 36982 ft 472 kts 131°
2026-05-04 17:24 41.72948 7.14015 36991 ft 473 kts 131°
2026-05-04 17:25 41.65171 7.28208 37002 ft 473 kts 131°
2026-05-04 17:26 41.57361 7.42393 37006 ft 474 kts 131°
2026-05-04 17:27 41.47540 7.60139 37033 ft 477 kts 133°
2026-05-04 17:28 41.39520 7.74545 37006 ft 489 kts 133°
2026-05-04 17:29 41.27297 7.96399 37018 ft 491 kts 133°
2026-05-04 17:31 41.16992 8.14381 37011 ft 483 kts 140°
2026-05-04 17:31 41.09027 8.21888 37006 ft 460 kts 163°
2026-05-04 17:32 41.03320 8.24341 37025 ft 451 kts 171°
2026-05-04 17:33 40.91261 8.29048 37023 ft 452 kts 170°
2026-05-04 17:34 40.82175 8.32674 36453 ft 461 kts 170°
2026-05-04 17:34 40.79118 8.33895 35882 ft 458 kts 170°
2026-05-04 17:35 40.69976 8.37541 33853 ft 458 kts 170°
2026-05-04 17:35 40.63868 8.39965 32327 ft 459 kts 169°
2026-05-04 17:35 40.60812 8.41177 31568 ft 459 kts 169°
2026-05-04 17:36 40.57748 8.42391 30805 ft 460 kts 169°
2026-05-04 17:36 40.54679 8.43605 30017 ft 461 kts 169°
2026-05-04 17:36 40.51600 8.44822 29078 ft 462 kts 169°
2026-05-04 17:36 40.48520 8.46039 28187 ft 462 kts 168°
2026-05-04 17:37 40.45437 8.47257 27270 ft 463 kts 168°
2026-05-04 17:37 40.42394 8.48457 26394 ft 463 kts 168°
2026-05-04 17:37 40.39331 8.49667 25784 ft 457 kts 168°
2026-05-04 17:37 40.36302 8.50861 25121 ft 453 kts 168°
2026-05-04 17:38 40.33296 8.52043 24467 ft 449 kts 168°
2026-05-04 17:38 40.30325 8.53211 23826 ft 444 kts 168°
2026-05-04 17:38 40.27422 8.54620 23103 ft 446 kts 160°
2026-05-04 17:38 40.24722 8.56613 22524 ft 445 kts 152°
2026-05-04 17:39 40.19598 8.61026 21210 ft 437 kts 150°
2026-05-04 17:39 40.17068 8.63199 20558 ft 433 kts 150°
2026-05-04 17:39 40.14551 8.65339 19942 ft 429 kts 150°
2026-05-04 17:40 40.12052 8.67445 19322 ft 426 kts 150°
2026-05-04 17:40 40.09560 8.69535 18680 ft 424 kts 150°
2026-05-04 17:40 40.07080 8.71610 17986 ft 423 kts 150°
2026-05-04 17:40 40.04618 8.73671 17306 ft 419 kts 150°
2026-05-04 17:41 40.02171 8.75718 16654 ft 415 kts 150°
2026-05-04 17:41 39.99751 8.77741 16024 ft 411 kts 150°
2026-05-04 17:41 39.97353 8.79747 15412 ft 407 kts 150°
2026-05-04 17:41 39.94981 8.81730 14808 ft 403 kts 150°
2026-05-04 17:42 39.92634 8.83693 14213 ft 399 kts 150°
2026-05-04 17:42 39.90308 8.85636 13580 ft 395 kts 150°
2026-05-04 17:42 39.88006 8.87559 12928 ft 391 kts 150°
2026-05-04 17:42 39.85727 8.89462 12298 ft 387 kts 150°
2026-05-04 17:43 39.83474 8.91340 11708 ft 383 kts 150°
2026-05-04 17:43 39.81245 8.93196 11225 ft 376 kts 150°
2026-05-04 17:43 39.79096 8.94990 11091 ft 360 kts 151°
2026-05-04 17:43 39.77034 8.96718 10924 ft 345 kts 151°
2026-05-04 17:44 39.75711 8.97827 10836 ft 337 kts 151°
2026-05-04 17:44 39.73159 8.99962 10643 ft 322 kts 151°
2026-05-04 17:44 39.71903 9.01012 10557 ft 314 kts 151°
2026-05-04 17:44 39.70099 9.02518 10436 ft 304 kts 152°
2026-05-04 17:45 39.68344 9.03982 10308 ft 295 kts 152°
2026-05-04 17:45 39.66108 9.05848 10159 ft 282 kts 152°
2026-05-04 17:45 39.64981 9.06697 10078 ft 273 kts 162°
2026-05-04 17:45 39.63158 9.07173 9619 ft 268 kts 182°
2026-05-04 17:46 39.61280 9.07193 9133 ft 273 kts 183°
2026-05-04 17:46 39.59365 9.07216 8646 ft 278 kts 183°
2026-05-04 17:46 39.57411 9.07249 8135 ft 284 kts 183°
2026-05-04 17:46 39.55418 9.07286 7614 ft 289 kts 182°
2026-05-04 17:47 39.53400 9.07184 7082 ft 291 kts 194°
2026-05-04 17:47 39.51532 9.06244 6654 ft 288 kts 210°
2026-05-04 17:47 39.49757 9.04996 6118 ft 292 kts 211°
2026-05-04 17:47 39.47981 9.03716 5640 ft 294 kts 211°
2026-05-04 17:48 39.46188 9.02427 5182 ft 295 kts 211°
2026-05-04 17:48 39.44415 9.01161 4727 ft 296 kts 211°
2026-05-04 17:48 39.42599 8.99876 4239 ft 298 kts 210°
2026-05-04 17:48 39.40780 8.98592 3766 ft 299 kts 210°
2026-05-04 17:49 39.38952 8.97309 3309 ft 299 kts 210°
2026-05-04 17:49 39.37124 8.96026 2817 ft 299 kts 210°
2026-05-04 17:49 39.35217 8.94987 2463 ft 295 kts 189°
2026-05-04 17:49 39.33372 8.95361 2609 ft 251 kts 155°
2026-05-04 17:50 39.31998 8.96548 2414 ft 225 kts 144°
2026-05-04 17:50 39.31022 8.98018 2010 ft 213 kts 122°
2026-05-04 17:50 39.30149 8.99555 1331 ft 209 kts 135°
2026-05-04 17:50 39.29175 9.00759 994 ft 182 kts 136°
2026-05-04 17:51 39.28286 9.01798 644 ft 164 kts 140°
2026-05-04 17:51 39.27465 9.02745 383 ft 158 kts 138°
2026-05-04 17:51 39.26636 9.03707 207 ft 164 kts 140°
2026-05-04 17:51 39.25775 9.04699 31 ft 164 kts 140°
2026-05-04 17:52 39.25050 9.05541 15 ft 89 kts 138°
2026-05-04 17:52 39.24806 9.05825 16 ft 24 kts 137°
2026-05-04 17:52 39.24695 9.05966 14 ft 16 kts 118°
2026-05-04 17:52 39.24711 9.06121 14 ft 24 kts 53°
2026-05-04 17:53 39.24810 9.06095 14 ft 17 kts 317°
2026-05-04 17:53 39.24895 9.05992 14 ft 16 kts 319°
2026-05-04 17:53 39.24998 9.05873 14 ft 22 kts 318°
2026-05-04 17:53 39.25102 9.05782 14 ft 17 kts
2026-05-04 17:54 39.25186 9.05833 14 ft 11 kts 330°
2026-05-04 17:54 39.25249 9.05785 14 ft 10 kts
2026-05-04 17:54 39.25290 9.05824 14 ft 0 kts 53°